QPF
0.07 0.05 0.04 0.03 0.03 0.04 0.04 0.06 0.05 0.03 0.02 0.03 0.04 0.04 0.04 0.07 0.09 0.08 0.07 0.08 0.06 0.05 0.04 0.04 0.04 0.02 0.02 0.02 0.02 0.02 0.04 0.04 0.04 0.04 0.04 0.04 0.05 0.08 0.08 0.06 0.05 0.05 0.04
0.04 0.04 0.04 0.04 0.04 0.04 0.07 0.06 0.04 0.04 0.03 0.04 0.05 0.05 0.05 0.06 0.06 0.07 0.07 0.07 0.07 0.07 0.04 0.03 0.05 0.03 0.02 0.02 0.02 0.02 0.02 0.04 0.04 0.04 0.05 0.04 0.03 0.06 0.09 0.10 0.08 0.07 0.06
0.07 0.06 0.04 0.04 0.03 0.03 0.04 0.04 0.02 0.03 0.03 0.03 0.04 0.05 0.04 0.03 0.03 0.05 0.06 0.06 0.06 0.06 0.05 0.06 0.08 0.05 0.03 0.03 0.02 0.02 0.03 0.03 0.04 0.05 0.07 0.05 0.03 0.02 0.03 0.05 0.09 0.12 0.07
0.13 0.08 0.05 0.05 0.05 0.05 0.03 0.02 0.01 0.01 0.02 0.02 0.03 0.03 0.03 0.03 0.03 0.03 0.04 0.06 0.07 0.06 0.05 0.07 0.09 0.08 0.05 0.03 0.03 0.03 0.03 0.04 0.04 0.04 0.04 0.04 0.04 0.03 0.02 0.03 0.06 0.10 0.08
0.06 0.06 0.07 0.08 0.08 0.07 0.06 0.03 0.01 0.01 0.01 0.01 0.03 0.03 0.03 0.04 0.03 0.04 0.05 0.05 0.06 0.06 0.05 0.06 0.07 0.07 0.05 0.04 0.03 0.02 0.04 0.05 0.04 0.04 0.04 0.04 0.03 0.03 0.03 0.02 0.02 0.04 0.05
0.05 0.07 0.08 0.10 0.11 0.11 0.10 0.06 0.03 0.03 0.04 0.04 0.07 0.08 0.06 0.03 0.03 0.04 0.05 0.05 0.06 0.05 0.05 0.05 0.05 0.06 0.04 0.03 0.03 0.04 0.05 0.04 0.03 0.03 0.03 0.03 0.03 0.03 0.03 0.04 0.03 0.03 0.03
0.12 0.13 0.10 0.11 0.12 0.13 0.11 0.08 0.08 0.07 0.05 0.05 0.06 0.06 0.06 0.04 0.03 0.02 0.03 0.04 0.04 0.05 0.04 0.04 0.04 0.05 0.05 0.04 0.04 0.04 0.04 0.02 0.01 0.02 0.02 0.01 0.02 0.02 0.03 0.05 0.04 0.03 0.03
0.09 0.12 0.09 0.08 0.09 0.10 0.12 0.10 0.09 0.07 0.05 0.04 0.06 0.06 0.06 0.05 0.03 0.02 0.02 0.03 0.04 0.05 0.04 0.05 0.05 0.05 0.05 0.05 0.04 0.03 0.02 0.02 0.02 0.02 0.02 0.02 0.02 0.02 0.03 0.04 0.05 0.04 0.03
0.06 0.07 0.06 0.06 0.08 0.12 0.12 0.12 0.10 0.07 0.04 0.03 0.04 0.04 0.05 0.05 0.03 0.03 0.03 0.03 0.04 0.04 0.04 0.05 0.04 0.04 0.04 0.05 0.04 0.03 0.02 0.02 0.02 0.02 0.02 0.03 0.03 0.03 0.02 0.02 0.03 0.04 0.04
0.04 0.04 0.03 0.04 0.06 0.07 0.09 0.10 0.09 0.05 0.02 0.02 0.02 0.02 0.02 0.03 0.03 0.03 0.05 0.05 0.06 0.04 0.04 0.04 0.03 0.03 0.04 0.04 0.05 0.04 0.02 0.02 0.02 0.02 0.02 0.02 0.02 0.02 0.02 0.02 0.02 0.03 0.05
0.02 0.02 0.02 0.02 0.04 0.05 0.05 0.07 0.07 0.05 0.02 0.01 0.01 0.02 0.02 0.03 0.04 0.04 0.05 0.05 0.04 0.03 0.03 0.02 0.02 0.02 0.02 0.02 0.03 0.04 0.04 0.02 0.01 0.01 0.02 0.03 0.02 0.01 0.01 0.01 0.02 0.03 0.05
0.02 0.02 0.01 0.02 0.02 0.03 0.04 0.04 0.05 0.05 0.04 0.03 0.03 0.03 0.03 0.03 0.04 0.04 0.05 0.05 0.04 0.04 0.03 0.02 0.02 0.02 0.02 0.03 0.04 0.04 0.04 0.03 0.02 0.03 0.04 0.03 0.01 0.01 0.01 0.01 0.01 0.02 0.02
0.02 0.02 0.02 0.02 0.02 0.02 0.02 0.03 0.04 0.05 0.07 0.08 0.07 0.06 0.06 0.05 0.04 0.04 0.05 0.06 0.06 0.05 0.04 0.03 0.03 0.03 0.03 0.03 0.04 0.05 0.04 0.04 0.04 0.04 0.04 0.02 0.02 0.01 0.01 0.01 0.02 0.03 0.03
0.04 0.03 0.02 0.01 0.01 0.02 0.02 0.02 0.03 0.05 0.05 0.07 0.07 0.06 0.06 0.07 0.07 0.06 0.05 0.04 0.05 0.04 0.03 0.04 0.05 0.04 0.05 0.04 0.04 0.04 0.05 0.07 0.06 0.05 0.04 0.03 0.03 0.03 0.03 0.02 0.02 0.04 0.03
0.04 0.03 0.02 0.01 0.01 0.02 0.02 0.02 0.02 0.03 0.04 0.05 0.06 0.06 0.07 0.07 0.06 0.06 0.05 0.04 0.04 0.04 0.03 0.04 0.06 0.06 0.07 0.06 0.06 0.05 0.04 0.05 0.06 0.07 0.06 0.04 0.04 0.04 0.04 0.03 0.02 0.02 0.02
0.05 0.03 0.02 0.02 0.01 0.01 0.01 0.01 0.02 0.04 0.05 0.06 0.06 0.05 0.06 0.05 0.05 0.04 0.04 0.04 0.03 0.03 0.02 0.02 0.04 0.06 0.05 0.05 0.05 0.05 0.06 0.05 0.06 0.07 0.08 0.06 0.05 0.05 0.05 0.04 0.04 0.03 0.02
0.08 0.04 0.03 0.02 0.02 0.02 0.02 0.03 0.03 0.05 0.06 0.08 0.07 0.05 0.04 0.04 0.04 0.03 0.03 0.03 0.02 0.02 0.02 0.02 0.02 0.03 0.04 0.05 0.05 0.05 0.06 0.06 0.06 0.08 0.10 0.10 0.09 0.08 0.07 0.07 0.06 0.06 0.06
0.10 0.07 0.05 0.04 0.05 0.06 0.04 0.05 0.06 0.07 0.07 0.07 0.05 0.04 0.03 0.03 0.03 0.03 0.02 0.03 0.03 0.02 0.02 0.02 0.02 0.02 0.03 0.04 0.03 0.04 0.04 0.05 0.06 0.07 0.08 0.09 0.08 0.07 0.07 0.06 0.05 0.06 0.06
0.08 0.08 0.06 0.04 0.04 0.04 0.05 0.06 0.06 0.07 0.07 0.05 0.04 0.03 0.03 0.02 0.03 0.03 0.03 0.03 0.04 0.04 0.03 0.03 0.03 0.03 0.03 0.03 0.03 0.04 0.04 0.04 0.04 0.05 0.05 0.06 0.05 0.05 0.06 0.06 0.06 0.06 0.06
0.08 0.09 0.08 0.05 0.03 0.03 0.04 0.04 0.04 0.04 0.04 0.03 0.03 0.03 0.03 0.03 0.03 0.03 0.03 0.03 0.04 0.04 0.03 0.03 0.03 0.03 0.03 0.03 0.04 0.04 0.04 0.05 0.06 0.07 0.08 0.08 0.06 0.05 0.04 0.04 0.04 0.04 0.05
0.08 0.08 0.08 0.07 0.04 0.03 0.03 0.03 0.03 0.03 0.02 0.02 0.02 0.03 0.04 0.04 0.04 0.03 0.02 0.03 0.03 0.03 0.02 0.02 0.03 0.04 0.04 0.04 0.05 0.06 0.06 0.08 0.08 0.08 0.08 0.07 0.07 0.06 0.05 0.03 0.02 0.02 0.04
0.06 0.06 0.07 0.08 0.05 0.03 0.02 0.01 0.01 0.01 0.01 0.01 0.01 0.02 0.03 0.03 0.02 0.02 0.02 0.03 0.03 0.02 0.02 0.02 0.02 0.03 0.04 0.03 0.03 0.05 0.06 0.08 0.08 0.07 0.07 0.07 0.06 0.06 0.05 0.04 0.03 0.03 0.04
0.04 0.04 0.04 0.07 0.08 0.04 0.03 0.02 0.01 0.01 0.02 0.02 0.02 0.02 0.02 0.02 0.02 0.01 0.02 0.02 0.02 0.02 0.03 0.03 0.02 0.03 0.03 0.02 0.03 0.04 0.04 0.05 0.05 0.06 0.06 0.08 0.08 0.05 0.04 0.03 0.04 0.04 0.03
0.04 0.04 0.03 0.04 0.08 0.06 0.04 0.03 0.01 0.01 0.02 0.02 0.02 0.03 0.02 0.03 0.03 0.03 0.02 0.02 0.02 0.03 0.04 0.05 0.05 0.05 0.04 0.03 0.03 0.03 0.04 0.04 0.05 0.05 0.05 0.06 0.06 0.06 0.04 0.03 0.03 0.03 0.03
0.04 0.03 0.03 0.03 0.06 0.08 0.05 0.04 0.03 0.02 0.02 0.03 0.03 0.04 0.05 0.05 0.04 0.03 0.02 0.02 0.03 0.04 0.05 0.06 0.06 0.06 0.05 0.04 0.04 0.02 0.03 0.04 0.04 0.04 0.05 0.05 0.06 0.07 0.05 0.04 0.03 0.02 0.01
0.03 0.03 0.04 0.04 0.05 0.07 0.06 0.06 0.07 0.06 0.05 0.05 0.06 0.06 0.06 0.05 0.03 0.03 0.02 0.01 0.02 0.03 0.04 0.05 0.05 0.05 0.05 0.06 0.06 0.04 0.03 0.04 0.04 0.03 0.03 0.06 0.06 0.07 0.06 0.04 0.03 0.02 0.01
MSLP
1004.71 1004.65 1004.64 1004.66 1004.69 1004.76 1004.87 1005.05 1005.33 1005.70 1006.14 1006.60 1007.06 1007.44 1007.73 1007.90 1007.96 1007.92 1007.84 1007.76 1007.72 1007.75 1007.85 1008.04 1008.28 1008.56 1008.83 1009.08 1009.30 1009.48 1009.63 1009.75 1009.83 1009.89 1009.91 1009.88 1009.80 1009.66 1009.47 1009.25 1009.04 1008.86 1008.75
1004.20 1004.18 1004.19 1004.22 1004.25 1004.30 1004.39 1004.56 1004.84 1005.23 1005.70 1006.22 1006.74 1007.19 1007.52 1007.73 1007.79 1007.75 1007.65 1007.55 1007.49 1007.51 1007.62 1007.82 1008.08 1008.38 1008.67 1008.94 1009.17 1009.37 1009.53 1009.67 1009.80 1009.92 1010.01 1010.06 1010.06 1010.00 1009.87 1009.70 1009.50 1009.32 1009.18
1003.62 1003.61 1003.63 1003.67 1003.69 1003.72 1003.80 1003.96 1004.25 1004.66 1005.18 1005.76 1006.35 1006.86 1007.27 1007.52 1007.61 1007.59 1007.49 1007.39 1007.32 1007.33 1007.44 1007.65 1007.92 1008.22 1008.51 1008.78 1009.01 1009.20 1009.37 1009.53 1009.70 1009.87 1010.03 1010.17 1010.26 1010.29 1010.24 1010.12 1009.96 1009.78 1009.63
1002.99 1002.97 1002.99 1003.00 1003.01 1003.02 1003.09 1003.25 1003.54 1003.99 1004.56 1005.20 1005.86 1006.45 1006.92 1007.23 1007.38 1007.39 1007.31 1007.22 1007.16 1007.17 1007.29 1007.49 1007.76 1008.06 1008.34 1008.60 1008.82 1009.00 1009.17 1009.34 1009.53 1009.75 1009.98 1010.20 1010.38 1010.49 1010.52 1010.47 1010.35 1010.20 1010.04
1002.38 1002.31 1002.29 1002.28 1002.25 1002.24 1002.29 1002.44 1002.75 1003.23 1003.84 1004.55 1005.27 1005.94 1006.48 1006.86 1007.06 1007.11 1007.08 1007.01 1006.96 1006.99 1007.11 1007.32 1007.59 1007.88 1008.15 1008.39 1008.59 1008.76 1008.93 1009.10 1009.32 1009.57 1009.84 1010.13 1010.38 1010.57 1010.67 1010.69 1010.62 1010.50 1010.36
1001.81 1001.68 1001.59 1001.52 1001.45 1001.40 1001.44 1001.59 1001.91 1002.42 1003.07 1003.83 1004.61 1005.34 1005.95 1006.39 1006.64 1006.75 1006.75 1006.72 1006.71 1006.76 1006.89 1007.11 1007.38 1007.66 1007.93 1008.16 1008.34 1008.50 1008.65 1008.82 1009.04 1009.31 1009.62 1009.94 1010.24 1010.50 1010.67 1010.74 1010.73 1010.66 1010.55
1001.31 1001.08 1000.92 1000.77 1000.65 1000.57 1000.58 1000.73 1001.08 1001.60 1002.30 1003.10 1003.93 1004.71 1005.36 1005.85 1006.15 1006.31 1006.36 1006.37 1006.39 1006.47 1006.63 1006.86 1007.13 1007.42 1007.68 1007.90 1008.07 1008.21 1008.35 1008.50 1008.71 1008.97 1009.29 1009.63 1009.97 1010.26 1010.48 1010.62 1010.67 1010.65 1010.59
1000.87 1000.54 1000.28 1000.06 999.88 999.77 999.77 999.93 1000.29 1000.85 1001.57 1002.41 1003.28 1004.09 1004.78 1005.31 1005.65 1005.85 1005.94 1006.00 1006.06 1006.18 1006.36 1006.61 1006.90 1007.19 1007.45 1007.65 1007.81 1007.92 1008.03 1008.16 1008.34 1008.58 1008.88 1009.21 1009.56 1009.88 1010.14 1010.32 1010.43 1010.48 1010.48
1000.50 1000.07 999.71 999.42 999.18 999.04 999.04 999.22 999.61 1000.21 1000.97 1001.84 1002.73 1003.57 1004.28 1004.84 1005.22 1005.45 1005.59 1005.69 1005.80 1005.95 1006.17 1006.45 1006.75 1007.03 1007.28 1007.47 1007.60 1007.68 1007.74 1007.82 1007.95 1008.15 1008.40 1008.72 1009.05 1009.37 1009.66 1009.89 1010.05 1010.16 1010.24
1000.19 999.67 999.23 998.87 998.59 998.44 998.45 998.66 999.09 999.73 1000.53 1001.43 1002.36 1003.22 1003.95 1004.53 1004.94 1005.21 1005.40 1005.54 1005.69 1005.89 1006.14 1006.44 1006.74 1007.02 1007.25 1007.40 1007.48 1007.51 1007.51 1007.52 1007.59 1007.72 1007.92 1008.18 1008.49 1008.81 1009.11 1009.37 1009.59 1009.76 1009.90
999.97 999.38 998.87 998.46 998.16 998.00 998.04 998.29 998.78 999.48 1000.32 1001.27 1002.21 1003.10 1003.86 1004.46 1004.90 1005.21 1005.44 1005.64 1005.84 1006.08 1006.36 1006.66 1006.96 1007.21 1007.40 1007.49 1007.51 1007.46 1007.38 1007.31 1007.29 1007.34 1007.47 1007.68 1007.95 1008.25 1008.55 1008.84 1009.09 1009.32 1009.52
999.89 999.24 998.69 998.24 997.93 997.79 997.86 998.17 998.71 999.46 1000.37 1001.35 1002.33 1003.24 1004.02 1004.65 1005.13 1005.49 1005.76 1006.01 1006.26 1006.53 1006.83 1007.13 1007.40 1007.61 1007.74 1007.76 1007.68 1007.54 1007.36 1007.20 1007.08 1007.05 1007.11 1007.26 1007.49 1007.76 1008.06 1008.35 1008.64 1008.90 1009.15
999.97 999.31 998.74 998.28 997.96 997.84 997.95 998.31 998.91 999.72 1000.67 1001.69 1002.71 1003.64 1004.45 1005.12 1005.63 1006.03 1006.36 1006.65 1006.93 1007.23 1007.53 1007.81 1008.05 1008.20 1008.24 1008.16 1007.98 1007.73 1007.45 1007.19 1006.99 1006.88 1006.87 1006.97 1007.15 1007.40 1007.68 1007.97 1008.26 1008.55 1008.82
1000.25 999.61 999.05 998.59 998.29 998.20 998.34 998.75 999.40 1000.25 1001.24 1002.29 1003.33 1004.29 1005.12 1005.81 1006.36 1006.80 1007.16 1007.49 1007.80 1008.11 1008.40 1008.64 1008.82 1008.88 1008.83 1008.65 1008.37 1008.01 1007.63 1007.28 1007.00 1006.82 1006.76 1006.81 1006.96 1007.18 1007.45 1007.73 1008.01 1008.29 1008.55
1000.72 1000.15 999.62 999.19 998.92 998.86 999.04 999.48 1000.16 1001.04 1002.05 1003.12 1004.16 1005.12 1005.97 1006.68 1007.25 1007.72 1008.11 1008.46 1008.78 1009.07 1009.33 1009.52 1009.62 1009.60 1009.45 1009.17 1008.78 1008.33 1007.87 1007.45 1007.12 1006.89 1006.80 1006.82 1006.95 1007.14 1007.38 1007.64 1007.90 1008.15 1008.39
1001.35 1000.87 1000.41 1000.04 999.82 999.79 1000.01 1000.47 1001.17 1002.06 1003.07 1004.13 1005.16 1006.12 1006.96 1007.66 1008.24 1008.72 1009.12 1009.47 1009.78 1010.04 1010.25 1010.38 1010.39 1010.28 1010.03 1009.66 1009.20 1008.68 1008.16 1007.70 1007.34 1007.10 1006.98 1007.00 1007.11 1007.28 1007.50 1007.72 1007.94 1008.14 1008.33
1002.05 1001.71 1001.36 1001.07 1000.92 1000.95 1001.20 1001.69 1002.39 1003.27 1004.26 1005.29 1006.29 1007.22 1008.03 1008.72 1009.29 1009.75 1010.14 1010.46 1010.74 1010.95 1011.10 1011.15 1011.08 1010.89 1010.56 1010.12 1009.60 1009.05 1008.51 1008.04 1007.68 1007.44 1007.34 1007.35 1007.45 1007.61 1007.80 1007.98 1008.14 1008.28 1008.40
1002.75 1002.57 1002.36 1002.20 1002.14 1002.24 1002.54 1003.05 1003.76 1004.62 1005.57 1006.56 1007.51 1008.39 1009.16 1009.81 1010.34 1010.78 1011.13 1011.41 1011.63 1011.79 1011.86 1011.84 1011.70 1011.44 1011.06 1010.58 1010.04 1009.48 1008.96 1008.51 1008.17 1007.96 1007.88 1007.90 1007.99 1008.13 1008.28 1008.42 1008.52 1008.59 1008.63
1003.38 1003.38 1003.34 1003.33 1003.40 1003.60 1003.96 1004.51 1005.21 1006.05 1006.96 1007.89 1008.78 1009.60 1010.32 1010.91 1011.40 1011.78 1012.08 1012.31 1012.47 1012.56 1012.57 1012.48 1012.28 1011.98 1011.57 1011.09 1010.56 1010.03 1009.55 1009.14 1008.85 1008.67 1008.61 1008.64 1008.73 1008.84 1008.95 1009.03 1009.07 1009.06 1009.03
1003.93 1004.12 1004.27 1004.43 1004.64 1004.95 1005.39 1005.98 1006.69 1007.50 1008.37 1009.24 1010.07 1010.82 1011.47 1012.01 1012.44 1012.77 1013.01 1013.18 1013.28 1013.31 1013.26 1013.12 1012.89 1012.57 1012.16 1011.70 1011.21 1010.74 1010.31 1009.96 1009.72 1009.58 1009.54 1009.56 1009.64 1009.72 1009.78 1009.80 1009.77 1009.70 1009.59
1004.44 1004.82 1005.15 1005.48 1005.84 1006.27 1006.80 1007.42 1008.14 1008.93 1009.75 1010.56 1011.33 1012.01 1012.60 1013.08 1013.45 1013.73 1013.92 1014.04 1014.09 1014.07 1013.98 1013.81 1013.57 1013.25 1012.87 1012.46 1012.03 1011.62 1011.26 1010.97 1010.77 1010.66 1010.62 1010.63 1010.68 1010.71 1010.72 1010.69 1010.60 1010.47 1010.31
1005.00 1005.53 1006.03 1006.51 1007.01 1007.55 1008.15 1008.81 1009.53 1010.30 1011.07 1011.82 1012.52 1013.14 1013.66 1014.09 1014.41 1014.64 1014.79 1014.87 1014.88 1014.83 1014.72 1014.55 1014.32 1014.03 1013.70 1013.35 1012.99 1012.65 1012.35 1012.11 1011.94 1011.84 1011.80 1011.78 1011.79 1011.78 1011.74 1011.65 1011.52 1011.34 1011.14
1005.72 1006.36 1006.97 1007.58 1008.18 1008.80 1009.44 1010.13 1010.84 1011.56 1012.27 1012.96 1013.59 1014.15 1014.62 1015.00 1015.28 1015.48 1015.60 1015.65 1015.65 1015.59 1015.48 1015.33 1015.12 1014.88 1014.61 1014.32 1014.03 1013.76 1013.51 1013.32 1013.16 1013.06 1012.99 1012.94 1012.89 1012.83 1012.75 1012.62 1012.46 1012.26 1012.04
1006.66 1007.36 1008.04 1008.71 1009.37 1010.02 1010.68 1011.35 1012.02 1012.69 1013.34 1013.95 1014.52 1015.01 1015.44 1015.77 1016.03 1016.21 1016.32 1016.36 1016.36 1016.31 1016.22 1016.09 1015.93 1015.74 1015.53 1015.31 1015.08 1014.86 1014.66 1014.48 1014.34 1014.21 1014.11 1014.02 1013.92 1013.82 1013.69 1013.55 1013.37 1013.17 1012.95
1007.86 1008.55 1009.24 1009.92 1010.57 1011.21 1011.84 1012.46 1013.06 1013.66 1014.23 1014.77 1015.27 1015.71 1016.09 1016.40 1016.64 1016.81 1016.92 1016.97 1016.98 1016.95 1016.89 1016.80 1016.68 1016.55 1016.39 1016.23 1016.05 1015.88 1015.71 1015.54 1015.38 1015.24 1015.10 1014.97 1014.83 1014.69 1014.54 1014.39 1014.21 1014.03 1013.83
1009.27 1009.90 1010.54 1011.16 1011.76 1012.34 1012.89 1013.43 1013.95 1014.46 1014.95 1015.42 1015.85 1016.24 1016.59 1016.88 1017.11 1017.28 1017.40 1017.48 1017.51 1017.51 1017.48 1017.42 1017.35 1017.26 1017.15 1017.03 1016.89 1016.75 1016.59 1016.43 1016.27 1016.10 1015.93 1015.76 1015.60 1015.44 1015.28 1015.13 1014.97 1014.81 1014.64
Thickness
5785 5787 5786 5784 5782 5779 5777 5774 5771 5769 5766 5764 5761 5758 5756 5757 5757 5757 5756 5755 5753 5752 5749 5747 5746 5744 5742 5740 5739 5737 5735 5734 5734 5731 5729 5731 5734 5734 5733 5732 5731 5729 5728
5780 5781 5781 5779 5778 5776 5774 5772 5770 5767 5764 5762 5761 5759 5756 5754 5754 5755 5754 5753 5752 5750 5748 5746 5744 5742 5740 5738 5737 5735 5732 5731 5732 5727 5722 5718 5722 5727 5731 5730 5729 5728 5727
5777 5776 5775 5775 5774 5772 5772 5772 5768 5765 5763 5761 5758 5755 5753 5751 5750 5750 5750 5751 5750 5748 5747 5745 5743 5741 5739 5736 5735 5734 5730 5727 5728 5728 5722 5714 5711 5716 5723 5725 5726 5726 5724
5777 5775 5772 5771 5771 5770 5770 5768 5766 5763 5761 5758 5754 5750 5747 5744 5745 5746 5747 5747 5747 5746 5745 5743 5741 5740 5738 5736 5734 5733 5730 5726 5723 5724 5724 5722 5719 5712 5712 5717 5721 5723 5722
5776 5773 5772 5771 5770 5768 5766 5763 5761 5760 5758 5756 5753 5748 5745 5744 5744 5744 5743 5743 5744 5744 5743 5741 5739 5737 5736 5734 5732 5731 5728 5726 5723 5721 5720 5719 5717 5716 5710 5707 5712 5716 5718
5774 5772 5772 5770 5766 5763 5760 5758 5755 5755 5755 5753 5749 5746 5743 5742 5740 5740 5739 5739 5739 5739 5739 5738 5737 5735 5734 5732 5731 5729 5727 5725 5722 5721 5719 5716 5714 5712 5710 5706 5706 5708 5713
5769 5767 5764 5761 5759 5757 5755 5753 5750 5750 5751 5749 5747 5745 5743 5740 5738 5737 5736 5735 5735 5735 5735 5735 5734 5732 5731 5730 5729 5726 5724 5722 5720 5719 5717 5716 5715 5714 5712 5708 5705 5705 5708
5763 5761 5759 5757 5755 5753 5750 5747 5745 5745 5745 5744 5743 5742 5741 5738 5736 5735 5733 5733 5732 5732 5732 5732 5731 5730 5729 5728 5726 5723 5721 5720 5718 5717 5716 5714 5714 5713 5711 5708 5704 5700 5701
5759 5758 5756 5754 5751 5748 5746 5745 5742 5740 5739 5739 5739 5737 5736 5735 5734 5732 5731 5730 5729 5729 5729 5728 5727 5726 5725 5724 5722 5720 5718 5717 5715 5713 5712 5711 5711 5711 5710 5709 5706 5700 5694
5754 5753 5752 5751 5749 5747 5744 5742 5739 5737 5736 5735 5734 5733 5731 5731 5730 5728 5726 5726 5725 5725 5724 5723 5722 5721 5720 5719 5718 5716 5714 5713 5711 5710 5709 5707 5707 5707 5707 5706 5704 5702 5698
5749 5749 5748 5747 5745 5743 5740 5737 5736 5733 5730 5729 5727 5726 5725 5724 5724 5723 5723 5722 5721 5719 5719 5718 5717 5716 5715 5714 5712 5711 5710 5708 5707 5706 5705 5704 5704 5702 5702 5702 5701 5699 5697
5745 5744 5742 5740 5738 5736 5734 5732 5731 5728 5726 5724 5722 5719 5718 5717 5716 5716 5716 5716 5715 5714 5713 5712 5711 5710 5709 5708 5707 5705 5704 5703 5702 5702 5701 5700 5700 5698 5697 5697 5696 5695 5695
5736 5736 5735 5733 5731 5729 5728 5727 5725 5722 5721 5718 5715 5712 5710 5709 5708 5708 5708 5708 5707 5707 5706 5705 5704 5703 5702 5701 5701 5700 5699 5698 5698 5698 5697 5696 5694 5693 5693 5692 5692 5692 5692
5731 5729 5728 5727 5725 5724 5722 5721 5719 5717 5714 5711 5708 5705 5703 5702 5702 5702 5701 5701 5700 5700 5699 5698 5697 5696 5695 5694 5694 5693 5693 5692 5692 5693 5692 5692 5691 5690 5689 5689 5688 5687 5686
5723 5722 5720 5719 5718 5716 5715 5714 5712 5710 5708 5703 5700 5698 5697 5696 5695 5695 5694 5694 5693 5693 5692 5691 5690 5689 5688 5687 5686 5686 5686 5685 5685 5686 5687 5688 5688 5688 5686 5686 5683 5682 5680
5717 5716 5714 5713 5711 5710 5709 5707 5704 5702 5699 5694 5692 5691 5690 5688 5687 5687 5686 5686 5685 5684 5683 5682 5681 5680 5680 5679 5678 5678 5678 5677 5677 5678 5679 5681 5682 5682 5682 5681 5681 5680 5677
5708 5707 5706 5705 5704 5703 5703 5700 5698 5695 5691 5688 5685 5683 5682 5680 5680 5680 5679 5677 5676 5676 5674 5673 5673 5671 5671 5671 5671 5671 5670 5669 5670 5671 5671 5674 5675 5675 5675 5674 5675 5674 5673
5703 5700 5699 5698 5696 5695 5694 5692 5689 5685 5682 5679 5677 5676 5674 5672 5671 5671 5670 5669 5668 5667 5666 5665 5664 5663 5663 5663 5663 5663 5662 5662 5662 5663 5664 5664 5665 5667 5667 5666 5666 5666 5667
5697 5695 5694 5692 5689 5687 5686 5683 5679 5676 5673 5671 5669 5669 5667 5665 5664 5662 5661 5661 5659 5659 5658 5658 5657 5656 5655 5655 5655 5654 5653 5653 5654 5655 5657 5657 5658 5659 5659 5659 5658 5658 5659
5690 5687 5685 5683 5680 5679 5678 5675 5670 5667 5665 5664 5663 5662 5660 5658 5656 5654 5653 5653 5652 5651 5651 5650 5650 5649 5648 5648 5647 5646 5645 5644 5645 5646 5648 5648 5650 5651 5651 5651 5651 5650 5651
5681 5679 5676 5673 5671 5670 5669 5665 5661 5659 5659 5657 5655 5654 5653 5651 5649 5647 5646 5645 5644 5643 5642 5642 5641 5641 5640 5640 5639 5638 5636 5636 5636 5637 5638 5640 5641 5643 5644 5645 5645 5644 5644
5672 5670 5666 5663 5662 5661 5659 5655 5653 5652 5651 5649 5647 5646 5645 5644 5643 5639 5638 5637 5636 5634 5633 5632 5631 5632 5632 5632 5631 5630 5629 5629 5629 5629 5630 5632 5633 5635 5636 5637 5638 5638 5638
5661 5659 5657 5654 5652 5651 5649 5645 5645 5645 5642 5640 5638 5637 5636 5635 5634 5631 5630 5628 5627 5625 5624 5623 5622 5622 5623 5623 5623 5622 5622 5622 5622 5622 5623 5624 5625 5626 5627 5629 5630 5630 5629
5651 5649 5647 5644 5642 5642 5641 5639 5638 5637 5634 5631 5629 5628 5626 5625 5624 5623 5622 5620 5618 5617 5616 5615 5614 5614 5615 5615 5615 5614 5614 5614 5614 5614 5616 5617 5618 5618 5619 5620 5621 5622 5622
5642 5640 5637 5634 5633 5633 5632 5631 5628 5627 5625 5622 5620 5618 5617 5616 5615 5614 5613 5613 5612 5611 5610 5609 5608 5608 5608 5609 5608 5606 5606 5606 5606 5606 5606 5607 5608 5609 5610 5612 5613 5614 5615
5632 5630 5628 5626 5624 5623 5622 5622 5620 5618 5615 5612 5611 5609 5608 5607 5606 5605 5605 5606 5606 5606 5605 5604 5603 5603 5603 5603 5601 5600 5599 5599 5599 5598 5597 5597 5599 5600 5602 5603 5604 5606 5607